User: anonymous   Login
Location: Axtheid
(49.6213°N, 11.8205°E)
Time: 00:34:33
(UTC+00:00)
Language:

Aureole 3 Rocket - Orbit

View from above orbital plane
View from above orbital plane
View from above satellite
View from above satellite

Ground track
Ground track

The orbit data is extracted from the following two-line orbital elements,

1 12849U 81094B   21104.55885316  .00000254  00000-0  23017-4 0  9993
2 12849  82.4951 173.8354 0899099 255.7815  94.1949 13.50818378930555
Epoch (UTC): 14 April 2021 13:24:44
Eccentricity: 0.0899099
inclination: 82.4951°
perigee height: 399 km
apogee height: 1739 km
right ascension of ascending node: 173.8354°
argument of perigee: 255.7815°
revolutions per day: 13.50818378
mean anomaly at epoch: 94.1949°
orbit number at epoch: 93055

The dashed part of the orbit path shows where the satellite is in the earth's shadow,  

DLR